Flag for Germany Weather past 2 weeks in Apolda, Thuringia, Germany

Now
81 °F

Passing clouds.


Feels Like: 80 °F
Forecast: 63 / 88 °F
Wind: 2 mph from Southeast

Location: Erfurt-Bindersleben

Current Time: Aug 3, 2015 at 12:50:43 PM

Latest Report: Aug 3, 2015 at 12:00 PM


Visibility: 37 mi

Pressure: 30.05 "Hg

Humidity: 36%

Dew point: 51 °F

Location of ApoldaLocation

Historic Weather in Apolda — Graph

°F

Apolda temperature yesterday

Maximum temperature yesterday: 81 °F (at 5:00 PM)
Minimum temperature yesterday: 52 °F (at 7:00 AM)
Average temperature yesterday: 70 °F

Past Weeks' High & Low Weather Summary

 TemperatureHumidityPressure
High87 °F (Jul 22, 5:00 PM)97% (Jul 31, 7:00 AM)30.14 "Hg (Jul 31, 7:00 AM)
Low46 °F (Jul 31, 4:00 AM)26% (Aug 2, 4:00 PM)29.60 "Hg (Jul 25, 6:00 AM)
Average65 °F65%29.89 "Hg
* Reported Jul 19 11:00 AM — Aug 3 11:00 AM, Apolda, Weather by CustomWeather, © 2015

Note: Actual official high and low records may vary slightly from our data, if they occured in-between our weather recording intervals... More about our weather records

Advertising

Apolda weather history for previous 24 hours

 ConditionsComfort  
Time TempWeatherWind HumidityBarometerVisibility
11:00 AM
Mon, Aug 3
77 °FPassing clouds.2 mph45%30.07 "Hg37 mi
10:00 AM73 °FScattered clouds.2 mph52%30.08 "Hg31 mi
9:00 AM68 °FScattered clouds.1 mph54%30.08 "Hg31 mi
8:00 AM62 °FScattered clouds.1 mph68%30.10 "Hg31 mi
7:00 AM57 °FPassing clouds.1 mph75%30.10 "Hg31 mi
6:00 AM58 °FPassing clouds.1 mph70%30.10 "Hg37 mi
5:00 AM62 °FPassing clouds.2 mph61%30.10 "Hg37 mi
4:00 AM63 °FPassing clouds.3 mph57%30.10 "Hg37 mi
3:00 AM66 °FPassing clouds.2 mph50%30.09 "Hg37 mi
2:00 AM67 °FPassing clouds.2 mph48%30.11 "Hg37 mi
1:00 AM65 °FPassing clouds.3 mph51%30.12 "Hg37 mi
11:00 PM
Sun, Aug 2
71 °FOvercast.2 mph39%30.09 "Hg37 mi
10:00 PM72 °FPassing clouds.2 mph38%30.09 "Hg37 mi
9:00 PM75 °FScattered clouds.2 mph33%30.07 "Hg37 mi
8:00 PM78 °FScattered clouds.2 mph31%30.06 "Hg37 mi
7:00 PM80 °FScattered clouds.3 mph29%30.05 "Hg43 mi
6:00 PM80 °FScattered clouds.2 mph26%30.05 "Hg43 mi
5:00 PM81 °FScattered clouds.2 mph26%30.06 "Hg43 mi
4:00 PM80 °FScattered clouds.2 mph26%30.07 "Hg43 mi
3:00 PM79 °FScattered clouds.3 mph27%30.09 "Hg37 mi
2:00 PM79 °FPassing clouds.2 mph29%30.09 "Hg37 mi
1:00 PM78 °FPassing clouds.2 mph32%30.10 "Hg37 mi
12:00 PM76 °FPassing clouds.2 mph38%30.11 "Hg37 mi
Weather by CustomWeather, © 2015

See weather overviewHow to use our weather pages